Previsão horária em Pletyashi

Hoje, 3 Março, Quarta-feira

Tempo Temperatura Precipitação Vento Pressão Humidade
00:00 -3°C° 0 mm 4 m/s 750 mmHg 82%
01:00 -2°C° 0 mm 3 m/s 750 mmHg 84%
02:00 -4°C° 0 mm 3 m/s 750 mmHg 89%
03:00 -4°C° 0 mm 3 m/s 750 mmHg 90%
04:00 -4°C° 0 mm 3 m/s 750 mmHg 91%
05:00 -4°C° 0 mm 3 m/s 750 mmHg 92%
06:00 -4°C° 0 mm 3 m/s 750 mmHg 91%
07:00 -4°C° 0 mm 3 m/s 750 mmHg 89%
08:00 -4°C° 0 mm 3 m/s 750 mmHg 88%
09:00 -1°C° 0 mm 3 m/s 750 mmHg 81%
10:00 -1°C° 0 mm 4 m/s 749 mmHg 74%
11:00 +1°C° 0 mm 4 m/s 749 mmHg 66%
12:00 +3°C° 0 mm 4 m/s 749 mmHg 64%
13:00 +4°C° 0 mm 4 m/s 748 mmHg 61%
14:00 +3°C° 0 mm 5 m/s 748 mmHg 59%
15:00 +4°C° 0 mm 4 m/s 747 mmHg 62%
16:00 +3°C° 0 mm 4 m/s 746 mmHg 64%
17:00 +3°C° 0 mm 4 m/s 745 mmHg 67%
18:00 +1°C° 0 mm 4 m/s 745 mmHg 70%
19:00 0°C° 0 mm 4 m/s 744 mmHg 72%
20:00 -1°C° 0 mm 4 m/s 744 mmHg 74%
21:00 -1°C° 0 mm 4 m/s 743 mmHg 78%
22:00 -1°C° 0 mm 4 m/s 742 mmHg 82%
23:00 -2°C° 0 mm 4 m/s 741 mmHg 86%

Amanhã, 4 Março, Quinta-feira

Tempo Temperatura Precipitação Vento Pressão Humidade
00:00 -2°C° 0 mm 4 m/s 741 mmHg 87%
01:00 -2°C° 0 mm 4 m/s 740 mmHg 87%
02:00 -2°C° 0 mm 4 m/s 740 mmHg 88%
03:00 -2°C° 0 mm 4 m/s 739 mmHg 89%
04:00 -2°C° 0 mm 4 m/s 738 mmHg 90%
05:00 -2°C° 0 mm 3 m/s 737 mmHg 91%
06:00 -1°C° 0 mm 3 m/s 736 mmHg 90%
07:00 -1°C° 0 mm 3 m/s 736 mmHg 90%
08:00 -1°C° 0 mm 3 m/s 735 mmHg 90%
09:00 -1°C° 0 mm 3 m/s 735 mmHg 89%
10:00 -1°C° 0 mm 3 m/s 735 mmHg 89%
11:00 -1°C° 0 mm 4 m/s 734 mmHg 88%
12:00 -1°C° 0 mm 4 m/s 734 mmHg 90%
13:00 -1°C° 0 mm 4 m/s 734 mmHg 91%
14:00 -1°C° 0 mm 4 m/s 734 mmHg 92%
15:00 -2°C° 0.2 mm 4 m/s 734 mmHg 88%
16:00 -2°C° 0.2 mm 4 m/s 734 mmHg 85%
17:00 -2°C° 0.2 mm 4 m/s 734 mmHg 81%
18:00 -3°C° 0 mm 4 m/s 735 mmHg 79%
19:00 -2°C° 0 mm 3 m/s 735 mmHg 76%
20:00 -4°C° 0 mm 3 m/s 736 mmHg 74%
21:00 -4°C° 0 mm 3 m/s 736 mmHg 76%
22:00 -5°C° 0 mm 3 m/s 736 mmHg 78%
23:00 -5°C° 0 mm 3 m/s 737 mmHg 80%

Depois de amanhã, 5 Março, Sexta-feira

Tempo Temperatura Precipitação Vento Pressão Humidade
00:00 -5°C° 0 mm 3 m/s 737 mmHg 80%
01:00 -6°C° 0 mm 3 m/s 738 mmHg 79%
02:00 -6°C° 0 mm 3 m/s 738 mmHg 79%
03:00 -5°C° 0 mm 2 m/s 738 mmHg 78%
04:00 -6°C° 0 mm 2 m/s 738 mmHg 78%
05:00 -4°C° 0 mm 1 m/s 738 mmHg 78%
06:00 -6°C° 0 mm 2 m/s 739 mmHg 76%
07:00 -5°C° 0 mm 2 m/s 739 mmHg 74%
08:00 -5°C° 0 mm 2 m/s 739 mmHg 72%
09:00 -4°C° 0 mm 2 m/s 739 mmHg 68%
10:00 -4°C° 0 mm 3 m/s 739 mmHg 64%
11:00 -3°C° 0 mm 4 m/s 740 mmHg 59%
12:00 -3°C° 0.2 mm 4 m/s 740 mmHg 56%
13:00 -2°C° 0.2 mm 5 m/s 740 mmHg 53%
14:00 -2°C° 0.2 mm 5 m/s 740 mmHg 50%
15:00 -2°C° 0.1 mm 5 m/s 740 mmHg 47%
16:00 -3°C° 0.1 mm 4 m/s 741 mmHg 44%
17:00 -3°C° 0.1 mm 4 m/s 741 mmHg 41%
18:00 -4°C° 0 mm 3 m/s 742 mmHg 45%
19:00 -5°C° 0 mm 3 m/s 742 mmHg 49%
20:00 -5°C° 0 mm 2 m/s 743 mmHg 52%
21:00 -5°C° 0 mm 2 m/s 743 mmHg 54%
22:00 -5°C° 0 mm 2 m/s 744 mmHg 57%
23:00 -6°C° 0 mm 3 m/s 744 mmHg 59%

6 Março, Sábado

Tempo Temperatura Precipitação Vento Pressão Humidade
00:00 -6°C° 0 mm 3 m/s 745 mmHg 61%
01:00 -7°C° 0 mm 3 m/s 745 mmHg 64%
02:00 -7°C° 0 mm 3 m/s 745 mmHg 67%
03:00 -7°C° 0 mm 3 m/s 746 mmHg 67%
04:00 -8°C° 0 mm 3 m/s 746 mmHg 67%
05:00 -8°C° 0 mm 3 m/s 746 mmHg 68%
06:00 -8°C° 0 mm 3 m/s 747 mmHg 68%
07:00 -8°C° 0 mm 3 m/s 747 mmHg 68%
08:00 -8°C° 0 mm 3 m/s 747 mmHg 67%
09:00 -7°C° 0 mm 3 m/s 748 mmHg 64%
10:00 -6°C° 0 mm 3 m/s 748 mmHg 61%
11:00 -5°C° 0 mm 4 m/s 748 mmHg 57%
12:00 -4°C° 0 mm 4 m/s 748 mmHg 52%
13:00 -4°C° 0 mm 4 m/s 747 mmHg 46%
14:00 -3°C° 0 mm 4 m/s 747 mmHg 40%
15:00 -3°C° 0 mm 4 m/s 747 mmHg 42%
16:00 -3°C° 0 mm 4 m/s 746 mmHg 44%
17:00 -4°C° 0 mm 5 m/s 746 mmHg 47%
18:00 -5°C° 0 mm 5 m/s 745 mmHg 51%
19:00 -5°C° 0 mm 5 m/s 745 mmHg 56%
20:00 -5°C° 0 mm 6 m/s 744 mmHg 61%
21:00 -5°C° 0 mm 6 m/s 743 mmHg 61%
22:00 -6°C° 0 mm 7 m/s 742 mmHg 60%
23:00 -6°C° 0 mm 7 m/s 742 mmHg 60%

7 Março, Domingo

Tempo Temperatura Precipitação Vento Pressão Humidade
00:00 -6°C° 0 mm 8 m/s 741 mmHg 65%
01:00 -6°C° 0 mm 8 m/s 740 mmHg 69%
02:00 -6°C° 0 mm 9 m/s 739 mmHg 74%
03:00 -5°C° 0.1 mm 9 m/s 738 mmHg 80%
04:00 -5°C° 0.1 mm 8 m/s 737 mmHg 86%
05:00 -5°C° 0.1 mm 8 m/s 736 mmHg 91%
06:00 -5°C° 0.2 mm 8 m/s 736 mmHg 91%
07:00 -5°C° 0.2 mm 9 m/s 735 mmHg 91%
08:00 -4°C° 0.2 mm 9 m/s 735 mmHg 91%
09:00 -4°C° 0.3 mm 9 m/s 735 mmHg 90%
10:00 -4°C° 0.3 mm 9 m/s 735 mmHg 90%
11:00 -4°C° 0.3 mm 9 m/s 734 mmHg 89%
12:00 -3°C° 0.1 mm 9 m/s 735 mmHg 75%
13:00 -3°C° 0.1 mm 9 m/s 735 mmHg 61%
14:00 -3°C° 0.1 mm 9 m/s 735 mmHg 46%
15:00 -2°C° 0 mm 8 m/s 735 mmHg 48%
16:00 -3°C° 0 mm 7 m/s 735 mmHg 50%
17:00 -4°C° 0 mm 6 m/s 735 mmHg 51%
18:00 -5°C° 0 mm 6 m/s 735 mmHg 54%
19:00 -6°C° 0 mm 5 m/s 736 mmHg 56%
20:00 -6°C° 0 mm 5 m/s 736 mmHg 58%
21:00 -7°C° 0 mm 5 m/s 737 mmHg 59%
22:00 -7°C° 0 mm 4 m/s 737 mmHg 61%
23:00 -7°C° 0 mm 4 m/s 737 mmHg 63%

8 Março, Segunda-feira

Tempo Temperatura Precipitação Vento Pressão Humidade
00:00 -7°C° 0 mm 4 m/s 737 mmHg 65%
01:00 -7°C° 0 mm 3 m/s 738 mmHg 68%
02:00 -7°C° 0 mm 3 m/s 738 mmHg 70%
03:00 -7°C° 0 mm 3 m/s 737 mmHg 71%
04:00 -7°C° 0 mm 3 m/s 737 mmHg 72%
05:00 -6°C° 0 mm 2 m/s 737 mmHg 72%
06:00 -7°C° 0 mm 3 m/s 737 mmHg 73%
07:00 -7°C° 0 mm 3 m/s 738 mmHg 73%
08:00 -7°C° 0 mm 3 m/s 738 mmHg 73%
09:00 -7°C° 0 mm 4 m/s 738 mmHg 70%
10:00 -7°C° 0 mm 4 m/s 739 mmHg 66%
11:00 -7°C° 0 mm 4 m/s 739 mmHg 63%
12:00 -7°C° 0 mm 5 m/s 740 mmHg 60%
13:00 -7°C° 0 mm 5 m/s 740 mmHg 57%
14:00 -7°C° 0 mm 5 m/s 741 mmHg 54%
15:00 -7°C° 0 mm 5 m/s 741 mmHg 53%
16:00 -8°C° 0 mm 5 m/s 742 mmHg 53%
17:00 -8°C° 0 mm 5 m/s 742 mmHg 52%
18:00 -10°C° 0 mm 5 m/s 743 mmHg 52%
19:00 -10°C° 0 mm 5 m/s 744 mmHg 52%
20:00 -11°C° 0 mm 5 m/s 745 mmHg 53%
21:00 -10°C° 0 mm 4 m/s 745 mmHg 53%
22:00 -11°C° 0 mm 4 m/s 746 mmHg 53%
23:00 -11°C° 0 mm 4 m/s 747 mmHg 53%
Mostrar mais

Necessitamos do seu Consentimento

A Meteoprog e os seus Fornecedores de Serviços podem armazenar e aceder a dados pessoais como cookies, identificadores do dispositivo ou outras tecnologias semelhantes existentes no seu dispositivo e processar estes dados para personalizar conteúdos e anúncios, assim como funcionalidades nas redes sociais e análise de tráfego.

  • Armazenar e/ou aceder a informações no seu dispositivo

    Os cookies, identificadores do dispositivo ou outras informações podem ser armazenados ou acedidos no seu dispositivo, para os fins acima indicados.

  • Anúncios e conteúdos personalizados, medição de anúncios e conteúdos, dados sobre o público-alvo e desenvolvimento de produtos

    Os anúncios e os conteúdos podem ser personalizados com base num perfil. Podem ser adicionados dados adicionais para uma maior personalização dos anúncios e dos conteúdos. A eficácia dos anúncios e dos conteúdos pode ser medida. Podem ser obtidas informações sobre o público que visualizou os anúncios e os conteúdos. Estes dados podem ser usados para desenvolver ou melhorar sistemas, softwares ou a experiência do utilizador.

Ao clicar em "Eu concordo”, permitirá o uso de cookies, identificadores do dispositivo e web beacons mencionados ou outras tecnologias semelhantes. As configurações do navegador do seu dispositivo podem ser alteradas.

Para certos fins, podem ser invocados interesses legítimos ao invés de consentimento. Pode ler mais informação sobre este assunto na nossa Política de Privacidade e Cookies.